sat.trackr.live / text

‹ back to catalog

STARLINK-1893

NORAD 46786 · 2020-074AZ

PAYLOAD ACTIVE UNKNOWN

§ Identity

Operator
Country
US
Launch date
2020-10-24
Launch site
AFETR
Launch vehicle
Mass (kg)
RCS (m²)

Purposes: comms

External: N2YO · Heavens-Above · Gunter

§ Orbital elements

Epoch: 2026-09-04T02:01:53.302080Z

Period
89.98 min
Inclination
53.0322°
Eccentricity
0.0005116
Mean motion
16.00429102 rev/d
Perigee alt
269.8 km
Apogee alt
276.6 km
Semi-major
6,651.4 km
B*
9.0096e-4
RAAN
102.4687°
Arg perigee
203.7139°
Mean anomaly
156.3656°
Rev number
32,550

§ Raw data

STARLINK-18931 46786U 20074AZ  26247.08464470  .00482519  11254-3  90096-3 0  99902 46786  53.0322 102.4687 0005116 203.7139 156.3656 16.00429102325506

JSON: /api/v1/satellites/46786 · /tle

For live sub-satellite position, see the globe view (requires WebGL).

§ Visibility from observer

Set your observer location to see the next 7 days of passes ≥ 10°. The values pass through the URL so the page stays shareable.

No JS? Fill the form by hand. The geolocation button needs JavaScript.